#timestamp,LO_Frequency,Hit 
1500469215.6,286046725.5,N
1500469235.4,286046725.4,N
1500469255.3,286046727.5,N
1500469275.1,286046725.5,N
1500469276.0,286046725.5,N
1500469295.8,286046725.4,N
1500469315.7,286046725.7,N
1500469335.5,286046725.5,N
1500469355.3,286046722.9,N
1500469375.2,286046724.8,N
1500469395.9,286046723.2,N
1500469415.7,286046725.2,N
1500469435.5,286046724.7,N
1500469455.4,286046722.9,N
1500469475.2,286046723.5,N
1500469495.0,286046721.4,N
1500469496.0,286046721.4,N
1500469515.8,286046724.4,N
1500469535.6,286046723.5,N
1500469555.4,286046724.2,N
1500469575.3,286046723.5,N
1500469595.1,286046722.9,N
1500469615.8,286046722.9,N
1500469635.7,286046725.0,N
1500469655.5,286046725.3,N
1500469675.3,286046725.3,N
1500469695.2,286046723.4,N
1500469715.9,286046723.7,N
1500469735.7,286046723.1,N
1500469755.6,286046724.1,N
1500469775.4,286046724.0,N
1500469795.2,286046721.6,N
1500469815.1,286046721.6,N
1500469816.0,286046721.6,N
1500469835.8,286046719.8,N
1500469855.6,286046722.7,N
1500469875.5,286046719.8,N
1500469895.3,286046721.8,N
1500469915.1,286046722.4,N
1500469935.9,286046721.5,N
1500469955.7,286046722.2,N
1500469975.5,286046721.4,N
1500469995.3,286046722.7,N
1500470015.2,286046721.0,N
1500470035.0,286046719.9,N
1500470035.9,286046719.9,N
1500470055.7,286046720.5,N
1500470075.6,286046720.2,N
1500470095.4,286046720.8,N
1500470115.2,286046719.9,N
1500470135.1,286046721.6,N
1500470136.0,286046721.6,N
1500470155.8,286046722.4,N
1500470175.6,286046722.3,N
1500470195.5,286046721.6,N
1500470215.3,286046719.9,N
1500470235.1,286046720.9,N
1500470255.9,286046720.0,N
1500470275.7,286046720.2,N
1500470295.5,286046720.9,N
1500470315.4,286046720.4,N
1500470335.2,286046722.3,N
1500470355.0,286046720.3,N
1500470355.9,286046720.3,N
1500470375.8,286046720.5,N
1500470395.6,286046720.9,N
1500470415.4,286046720.4,N
1500470435.3,286046721.8,N
1500470455.1,286046721.3,N
1500470456.0,286046721.3,N
1500470475.8,286046724.0,N
1500470495.7,286046724.1,N
1500470515.5,286046723.9,N
1500470535.3,286046721.7,N
1500470555.2,286046721.3,N
1500470575.9,286046723.7,N
1500470595.7,286046721.3,N
1500470615.6,286046724.4,N
1500470635.4,286046721.6,N
1500470655.2,286046721.4,N
1500470675.1,286046721.8,N
1500470676.0,286046721.8,N
1500470695.8,286046724.1,N
1500470715.6,286046723.7,N
1500470735.5,286046724.4,N
1500470755.3,286046721.5,N
1500470775.1,286046724.3,N
1500470795.8,286046721.6,N
1500470815.7,286046721.3,N
1500470835.5,286046722.1,N
1500470855.3,286046724.3,N
1500470875.2,286046724.4,N
1500470895.0,286046724.3,N
1500470895.9,286046724.3,N
1500470915.7,286046724.4,N
1500470935.6,286046722.2,N
1500470955.4,286046724.1,N
1500470975.2,286046724.2,N
1500470995.1,286046723.6,N
1500470996.0,286046723.6,N
1500471015.8,286046721.4,N
1500471035.6,286046722.3,N
1500471055.5,286046721.9,N
1500471075.3,286046720.8,N
1500471095.1,286046720.9,N
1500471115.9,286046720.2,N
1500471135.7,286046720.5,N
1500471155.5,286046719.7,N
1500471175.4,286046722.8,N
1500471195.2,286046722.5,N
1500471215.0,286046720.1,N
1500471215.9,286046720.1,N
1500471235.8,286046722.3,N
1500471255.6,286046722.3,N
1500471275.4,286046722.5,N
1500471295.3,286046721.4,N
1500471315.1,286046724.0,N
1500471316.0,286046724.0,N
1500471335.8,286046723.9,N
1500471355.6,286046723.9,N
1500471375.5,286046724.4,N
1500471395.3,286046723.7,N
1500471415.1,286046723.8,N
1500471435.9,286046721.5,N
1500471455.7,286046724.4,N
1500471475.5,286046721.3,N
1500471495.4,286046721.9,N
1500471515.2,286046722.1,N
1500471535.0,286046721.3,N
1500471535.9,286046721.3,N
1500471555.8,286046721.3,N
1500471575.6,286046722.5,N
1500471595.4,286046721.6,N
1500471615.3,286046721.7,N
1500471635.1,286046724.4,N
1500471636.0,286046724.4,N
1500471655.8,286046723.6,N
1500471675.7,286046723.5,N
1500471695.5,286046721.6,N
1500471715.3,286046722.1,N
1500471735.2,286046721.6,N
1500471755.9,286046720.1,N
1500471775.7,286046722.8,N
1500471795.6,286046719.9,N
1500471815.4,286046722.3,N
1500471835.2,286046721.9,N
1500471855.1,286046722.5,N
1500471856.0,286046722.5,N
1500471875.8,286046722.8,N
1500471895.6,286046720.5,N
1500471915.5,286046722.5,N
1500471935.3,286046719.8,N
1500471955.1,286046721.7,N
1500471975.9,286046724.2,N
1500471995.7,286046723.3,N
1500472015.5,286046721.3,N
1500472035.4,286046721.6,N
1500472055.2,286046721.9,N
1500472075.0,286046722.6,N
1500472075.9,286046722.6,N
1500472095.7,286046722.7,N
1500472115.6,286046722.0,N
1500472135.4,286046722.1,N
1500472155.2,286046724.3,N
1500472175.1,286046725.6,N
1500472176.0,286046725.6,N
1500472195.8,286046723.2,N
1500472215.6,286046721.7,N
1500472235.5,286046724.0,N
1500472255.3,286046723.1,N
1500472275.1,286046722.9,N
1500472295.9,286046723.4,N
1500472315.7,286046723.0,N
1500472335.5,286046723.5,N
1500472355.4,286046724.7,N
1500472375.2,286046725.2,N
1500472395.0,286046725.6,N
1500472395.9,286046725.6,N
1500472415.8,286046725.9,N
1500472435.6,286046723.0,N
1500472455.4,286046723.7,N
1500472475.3,286046724.1,N
1500472495.1,286046721.3,N
1500472496.0,286046721.3,N
1500472515.8,286046723.8,N
1500472535.7,286046721.4,N
1500472555.5,286046721.5,N
1500472575.3,286046722.0,N
1500472595.2,286046722.7,N
1500472615.9,286046721.6,N
1500472635.7,286046721.9,N
1500472655.6,286046721.3,N
1500472675.4,286046724.4,N
1500472695.2,286046723.0,N
1500472715.1,286046721.3,N
1500472716.0,286046721.3,N
1500472735.8,286046721.3,N
1500472755.6,286046724.2,N
1500472775.5,286046723.8,N
1500472795.3,286046724.0,N
